Stations météo

Publicité
Dinard, France (7125): Température de l'air & dewpoint: 10.02.2019 08:00:00 - 16.02.2019 08:00:00 (CET)Dinard, France (7125): Température de l'air 5cm: 10.02.2019 08:00:00 - 16.02.2019 08:00:00 (CET)Dinard, France (7125): Température de l'air -20cm: 10.02.2019 08:00:00 - 16.02.2019 08:00:00 (CET)Dinard, France (7125): Vitesse du vent & gusts: 10.02.2019 08:00:00 - 16.02.2019 08:00:00 (CET)Dinard, France (7125): Direction du vent: 10.02.2019 08:00:00 - 16.02.2019 08:00:00 (CET)Dinard, France (7125): reduced air pressure: 10.02.2019 08:00:00 - 16.02.2019 08:00:00 (CET)Dinard, France (7125): visibility: 10.02.2019 08:00:00 - 16.02.2019 08:00:00 (CET)Dinard, France (7125): Ensoleillement: 10.02.2019 08:00:00 - 16.02.2019 08:00:00 (CET)Dinard, France (7125): Quantités de précipitations: 10.02.2019 08:00:00 - 16.02.2019 08:00:00 (CET)
Date & Time tt [°C] td [°C] tt 5cm [°C] tt -20cm [°C] ff [km/h] ff [knt] fx [km/h] fx [knt] dd ppp [hPa] vv [km] sd [min] rr [mm]
16.02.2019 08:00:00 3,7 2,5 1,0 6,3 7 4 12 7 S 1025,8 9 0 0,0
16.02.2019 07:00:00 3,1 1,8 1,0 6,4 9 5 16 9 SSW 1025,4 16 0 0,0
16.02.2019 06:00:00 4,8 2,5 2,4 6,5 13 7 16 9 S 1025,0 19 0 0,0
16.02.2019 05:00:00 4,4 2,3 2,3 6,7 13 7 17 9 S 1024,9 19 0 0,0
16.02.2019 04:00:00 4,6 2,5 2,4 6,8 14 8 17 9 S 1025,3 20 0 0,0
16.02.2019 03:00:00 5,2 2,7 2,4 7,0 11 6 18 10 S 1025,7 22 0 0,0
16.02.2019 02:00:00 5,7 2,5 3,1 7,1 13 7 21 11 S 1025,9 24 0 0,0
16.02.2019 01:00:00 6,6 3,4 2,9 7,2 15 8 19 10 S 1026,0 22 0 0,0
16.02.2019 00:00:00 5,1 3,1 2,2 7,4 14 8 17 9 S 1026,2 12 0 0,0
15.02.2019 23:00:00 6,6 4,4 3,4 7,5 15 8 16 9 S 1026,2 10 0 0,0
15.02.2019 22:00:00 7,0 4,5 4,8 7,6 11 6 19 11 S 1026,2 12 0 0,0
15.02.2019 21:00:00 9,7 5,7 5,5 7,7 15 8 21 12 S 1025,8 12 0 0,0
15.02.2019 20:00:00 9,0 5,4 5,5 7,7 14 7 17 9 S 1026,0 18 0 0,0
15.02.2019 19:00:00 10,8 5,3 7,9 7,6 13 7 20 11 S 1025,7 22 4 0,0
15.02.2019 18:00:00 13,9 6,0 14,0 7,4 11 6 25 14 SSE 1025,2 29 60 0,0
15.02.2019 17:00:00 15,3 6,6 17,5 7,1 19 10 27 15 S 1025,0 23 60 0,0
15.02.2019 16:00:00 15,7 6,4 16,1 6,8 16 9 27 15 SSE 1025,2 32 60 0,0
15.02.2019 15:00:00 15,9 6,6 18,2 6,4 17 9 29 16 S 1025,7 24 60 0,0
15.02.2019 14:00:00 14,8 5,8 15,9 6,1 20 11 34 18 S 1026,2 23 60 0,0
15.02.2019 13:00:00 13,3 5,4 12,9 5,9 19 10 29 16 S 1027,1 19 60 0,0
15.02.2019 12:00:00 12,0 5,2 12,7 5,8 16 9 27 14 S 1027,6 21 60 0,0
15.02.2019 11:00:00 9,6 4,4 8,9 5,8 17 9 28 15 S 1027,8 13 60 0,0
15.02.2019 10:00:00 7,6 3,3 6,4 5,9 9 5 16 9 S 1028,0 13 60 0,0
15.02.2019 09:00:00 5,4 2,0 1,4 6,0 5 3 13 7 SSE 1027,9 12 19 0,0
15.02.2019 08:00:00 4,7 1,9 0,8 6,0 8 4 23 12 SE 1027,6 12 0 0,0
15.02.2019 07:00:00 6,0 2,3 3,9 6,1 16 8 26 14 SSE 1027,5 12 0 0,0
15.02.2019 06:00:00 5,2 2,0 3,9 6,2 12 6 22 12 SE 1027,7 13 0 0,0
15.02.2019 05:00:00 6,1 2,2 4,7 6,4 12 6 25 13 SE 1027,6 16 0 0,0
15.02.2019 04:00:00 6,5 2,0 4,6 6,4 13 7 24 13 SSE 1028,0 17 0 0,0
15.02.2019 03:00:00 7,2 1,9 5,6 6,5 13 7 24 13 SE 1028,1 20 0 0,0
15.02.2019 02:00:00 7,1 2,2 5,1 6,6 10 6 25 14 SSE 1028,4 18 0 0,0
15.02.2019 01:00:00 7,8 2,9 5,9 6,7 13 7 26 14 SSE 1028,4 18 0 0,0
15.02.2019 00:00:00 7,5 3,2 6,4 6,7 13 7 26 14 SE 1028,5 16 0 0,0
14.02.2019 23:00:00 8,1 3,4 6,9 6,8 16 8 29 16 SSE 1028,6 16 0 0,0
14.02.2019 22:00:00 8,9 3,5 7,6 6,9 17 9 30 16 SSE 1028,5 18 0 0,0
14.02.2019 21:00:00 9,2 3,6 7,9 6,9 17 9 28 15 SE 1028,8 19 0 0,0
14.02.2019 20:00:00 10,0 3,7 8,4 6,9 16 9 31 17 SE 1028,9 19 0 0,0
14.02.2019 19:00:00 10,6 4,1 8,7 6,8 13 7 25 13 SE 1028,9 20 2 0,0
14.02.2019 18:00:00 11,9 4,4 11,8 6,7 13 7 27 14 SSE 1028,6 23 60 0,0
14.02.2019 17:00:00 13,3 4,4 14,8 6,4 16 9 32 18 SSE 1028,4 36 60 0,0
14.02.2019 16:00:00 13,5 3,6 14,0 6,1 20 11 31 17 S 1028,7 33 60 0,0
14.02.2019 15:00:00 13,5 3,6 15,0 5,7 18 10 36 19 SE 1029,0 28 60 0,0
14.02.2019 14:00:00 12,4 3,3 13,9 5,4 18 10 34 19 SE 1029,8 15 60 0,0
14.02.2019 13:00:00 11,1 4,1 9,7 5,2 16 9 30 16 SSE 1030,9 15 60 0,0
14.02.2019 12:00:00 8,6 3,4 9,6 5,1 11 6 21 11 SE 1031,7 14 60 0,0
14.02.2019 11:00:00 6,3 2,2 6,8 5,1 9 5 17 9 SE 1031,9 11 60 0,0
14.02.2019 10:00:00 4,5 1,3 3,1 5,2 6 4 24 13 ESE 1031,9 12 60 0,0
14.02.2019 09:00:00 2,3 0,5 0,7 5,3 12 7 22 12 SE 1031,8 10 17 0,0
14.02.2019 08:00:00 1,9 0,6 0,3 5,4 11 6 19 11 SE 1031,5 9 0 0,0
14.02.2019 07:00:00 1,9 0,6 0,2 5,6 8 4 18 10 SE 1031,5 8 0 0,0
14.02.2019 06:00:00 1,9 0,6 -2,3 5,8 9 5 16 9 SE 1031,5 9 0 0,0
14.02.2019 05:00:00 2,0 0,5 -0,8 5,9 7 4 15 8 ESE 1031,7 8 0 0,0
14.02.2019 04:00:00 2,0 0,2 -0,7 6,1 6 3 13 7 ESE 1031,8 11 0 0,0
14.02.2019 03:00:00 2,9 1,1 -0,6 6,3 7 4 15 8 ESE 1032,1 11 0 0,0
14.02.2019 02:00:00 4,3 1,3 1,7 6,4 6 4 22 12 SE 1032,4 13 0 0,0
14.02.2019 01:00:00 5,1 1,6 2,8 6,5 11 6 22 12 SSE 1032,5 17 0 0,0
14.02.2019 00:00:00 5,3 1,8 2,4 6,7 8 4 18 10 SSE 1032,6 14 0 0,0
13.02.2019 23:00:00 6,1 2,4 3,3 6,8 12 7 20 11 SE 1032,3 13 0 0,0
13.02.2019 22:00:00 6,3 2,2 3,5 6,9 11 6 16 9 SE 1032,6 14 0 0,0
13.02.2019 21:00:00 7,1 2,4 3,6 7,0 10 5 16 9 SE 1032,6 14 0 0,0
13.02.2019 20:00:00 7,4 2,3 0,9 7,1 9 5 14 8 SE 1032,5 17 0 0,0
13.02.2019 19:00:00 7,9 2,6 1,8 7,0 6 3 9 5 E 1032,5 24 0 0,0
13.02.2019 18:00:00 9,9 2,7 9,6 6,9 7 4 16 9 SSE 1032,2 31 60 0,0
13.02.2019 17:00:00 11,0 3,3 13,1 6,7 8 5 19 10 SSE 1032,2 33 60 0,0
13.02.2019 16:00:00 11,5 3,5 12,4 6,5 12 6 24 13 S 1032,6 39 60 0,0
13.02.2019 15:00:00 11,0 3,3 13,1 6,1 16 8 28 15 S 1033,1 27 60 0,0
13.02.2019 14:00:00 10,2 3,7 12,6 5,9 17 9 30 16 SSE 1033,3 28 60 0,0
13.02.2019 13:00:00 9,2 3,8 9,4 5,7 18 10 27 15 S 1034,1 20 60 0,0
13.02.2019 12:00:00 8,4 3,6 9,1 5,7 20 11 30 16 S 1034,3 30 60 0,0
13.02.2019 11:00:00 6,6 2,7 6,4 5,6 14 8 22 12 SSE 1034,3 20 60 0,0
13.02.2019 10:00:00 4,6 2,1 3,0 5,7 11 6 18 10 SSE 1034,7 13 60 0,0
13.02.2019 09:00:00 2,6 1,3 1,5 5,8 9 5 18 10 S 1034,9 9 16 0,0
13.02.2019 08:00:00 2,8 1,3 1,5 6,0 10 6 17 9 SSE 1034,7 9 0 0,0
13.02.2019 07:00:00 3,4 1,8 1,5 6,1 10 5 16 9 SE 1034,5 11 0 0,0
13.02.2019 06:00:00 3,6 2,0 1,6 6,2 8 5 18 10 SE 1034,6 12 0 0,0
13.02.2019 05:00:00 4,3 2,5 2,4 6,3 12 6 19 10 SSE 1034,8 12 0 0,0
13.02.2019 04:00:00 4,4 2,7 3,0 6,4 11 6 20 11 SSE 1034,9 10 0 0,0
13.02.2019 03:00:00 4,9 3,2 3,3 6,5 13 7 20 11 SSE 1035,0 10 0 0,0
13.02.2019 02:00:00 5,2 3,2 3,9 6,7 13 7 21 11 SSE 1035,2 10 0 0,0
13.02.2019 01:00:00 5,8 3,3 2,9 6,8 13 7 20 11 SSE 1035,3 12 0 0,0
13.02.2019 00:00:00 5,4 2,9 0,8 7,0 11 6 16 9 SSE 1035,4 13 0 0,0
12.02.2019 23:00:00 5,4 3,4 1,3 7,1 5 3 13 7 S 1035,7 14 0 0,0
12.02.2019 22:00:00 6,5 3,5 0,6 7,2 6 3 10 5 SSE 1035,7 13 0 0,0
12.02.2019 21:00:00 6,1 3,4 1,4 7,4 5 3 9 5 S 1035,7 8 0 0,0
12.02.2019 20:00:00 7,7 4,6 1,4 7,4 6 4 10 6 ESE 1035,6 15 0 0,0
12.02.2019 19:00:00 7,7 5,3 2,8 7,3 6 3 9 5 E 1035,3 23 0 0,0
12.02.2019 18:00:00 9,3 5,1 7,8 7,1 6 3 10 5 N 1035,2 32 26 0,0
12.02.2019 17:00:00 12,5 5,2 12,1 6,9 6 3 11 6 SSE 1034,9 44 47 0,0
12.02.2019 16:00:00 11,9 4,6 12,2 6,6 3 2 17 9 SSW 1034,9 42 42 0,0
12.02.2019 15:00:00 11,5 4,7 11,8 6,2 5 3 15 8 SSW 1035,1 43 13 0,0
12.02.2019 14:00:00 11,0 5,1 12,3 5,9 8 5 20 11 W 1035,4 43 51 0,0
12.02.2019 13:00:00 10,9 5,6 10,7 5,7 10 5 19 11 SW 1036,0 43 60 0,0
12.02.2019 12:00:00 9,8 5,2 10,5 5,6 11 6 19 11 SW 1036,4 31 60 0,0
12.02.2019 11:00:00 7,3 4,1 6,4 5,6 12 6 16 9 SSW 1036,1 20 60 0,0
12.02.2019 10:00:00 4,5 2,7 1,2 5,7 13 7 16 9 S 1036,0 16 60 0,0
12.02.2019 09:00:00 2,0 1,0 -0,1 5,8 11 6 17 9 S 1035,7 20 14 0,0
12.02.2019 08:00:00 1,7 0,5 -0,5 6,0 12 7 16 9 S 1035,2 27 0 0,0
12.02.2019 07:00:00 2,0 1,0 -0,7 6,1 10 6 12 7 S 1035,1 22 0 0,0
12.02.2019 06:00:00 2,4 1,7 -0,7 6,2 9 5 11 6 S 1035,1 16 0 0,0
12.02.2019 05:00:00 2,8 1,9 0,6 6,4 9 5 11 6 S 1034,8 20 0 0,0
12.02.2019 04:00:00 3,5 2,2 0,5 6,5 9 5 13 7 S 1034,9 21 0 0,0
12.02.2019 03:00:00 4,1 3,1 0,2 6,6 7 4 9 5 S 1034,9 17 0 0,0
12.02.2019 02:00:00 3,2 2,2 0,5 6,8 5 3 8 4 SSW 1035,1 10 0 0,0
12.02.2019 01:00:00 3,6 2,9 -0,8 7,0 7 4 8 5 S 1034,5 4,9 0 0,0
12.02.2019 00:00:00 4,5 3,6 -0,7 7,2 7 4 9 5 S 1034,0 12 0 0,0
11.02.2019 23:00:00 3,9 3,5 -0,8 7,4 6 4 8 4 SSW 1034,3 0,6 0 0,0
11.02.2019 22:00:00 4,1 3,5 -0,5 7,6 6 4 9 5 SSW 1033,9 3,6 0 0,0
11.02.2019 21:00:00 3,6 2,1 -1,0 7,7 3 2 6 3 SSW 1033,4 9 0 0,0
11.02.2019 20:00:00 5,5 4,0 0,3 7,8 3 1 5 3 SSW 1033,1 15 0 0,0
11.02.2019 19:00:00 5,7 3,4 1,5 7,9 5 3 10 5 NW 1032,5 19 0 0,0
11.02.2019 18:00:00 7,2 4,3 6,7 7,8 6 3 19 11 N 1031,7 41 25 0,0
11.02.2019 17:00:00 8,5 3,9 8,9 7,7 15 8 29 16 NW 1030,9 48 32 0,0
11.02.2019 16:00:00 9,6 3,3 10,5 7,5 22 12 32 17 NNW 1030,0 46 60 0,0
11.02.2019 15:00:00 9,9 3,8 11,0 7,2 22 12 35 19 NNW 1029,3 34 52 0,0
11.02.2019 14:00:00 10,1 4,9 10,8 6,9 21 11 35 19 NNW 1029,2 20 52 0,0
11.02.2019 13:00:00 10,1 4,5 9,9 6,7 24 13 41 22 NNW 1028,7 20 57 0,0
11.02.2019 12:00:00 9,8 5,6 9,2 6,6 26 14 35 19 NNW 1027,6 44 23 0,0
11.02.2019 11:00:00 8,8 6,6 7,6 6,5 18 10 36 19 NNW 1026,7 16 1 0,2
11.02.2019 10:00:00 8,7 6,1 7,7 6,5 27 15 41 22 WNW 1025,3 13 1 0,0
11.02.2019 09:00:00 8,5 5,6 7,0 6,5 28 15 44 24 WNW 1024,0 16 0 0,0
11.02.2019 08:00:00 8,0 4,6 3,6 6,6 28 15 46 25 WNW 1022,6 19 0 0,0
11.02.2019 07:00:00 4,8 3,8 2,7 6,6 12 7 29 15 W 1021,8 17 0 0,0
11.02.2019 06:00:00 4,9 3,2 3,7 6,7 16 9 38 20 WSW 1021,0 27 0 0,0
11.02.2019 05:00:00 5,2 2,7 4,3 6,8 18 10 34 18 WSW 1020,5 20 0 0,0
11.02.2019 04:00:00 4,8 2,5 3,5 6,9 18 10 27 15 SW 1020,0 38 0 0,0
11.02.2019 03:00:00 4,2 2,4 3,4 7,0 16 9 32 17 WSW 1019,8 37 0 0,0
11.02.2019 02:00:00 4,7 2,9 3,2 7,2 20 11 29 16 WSW 1019,3 41 0 0,0
11.02.2019 01:00:00 4,9 2,6 3,2 7,3 15 8 28 15 WSW 1018,9 50 0 0,0
11.02.2019 00:00:00 4,7 2,6 3,3 7,5 19 11 32 17 W 1018,0 18 0 0,0
10.02.2019 23:00:00 4,5 1,9 3,5 7,6 16 8 36 19 WSW 1017,1 54 0 0,0
10.02.2019 22:00:00 5,1 1,9 4,0 7,8 18 10 36 19 WSW 1016,3 49 0 0,0
10.02.2019 21:00:00 6,0 2,1 4,6 7,9 20 11 46 25 W 1015,4 48 0 0,0
10.02.2019 20:00:00 6,2 2,6 4,7 8,0 19 11 46 25 W 1014,6 47 0 0,2
10.02.2019 19:00:00 6,1 3,1 4,0 8,1 18 10 58 31 W 1013,3 37 0 0,4
10.02.2019 18:00:00 6,9 3,3 6,3 8,1 21 12 48 26 W 1012,0 44 32 0,0
10.02.2019 17:00:00 7,5 2,4 5,0 8,1 34 18 73 40 W 1010,9 41 33 0,2
10.02.2019 16:00:00 9,0 3,6 7,8 8,1 37 20 79 43 WNW 1009,4 19 37 0,0
10.02.2019 15:00:00 8,0 3,5 6,9 8,0 45 24 79 43 NW 1007,9 15 16 0,0
10.02.2019 14:00:00 7,7 4,8 6,2 8,0 36 20 69 38 W 1005,4 16 14 0,4
10.02.2019 13:00:00 6,5 4,7 4,2 8,0 21 11 57 31 W 1004,5 54 11 1,4
10.02.2019 12:00:00 7,6 4,4 5,8 8,1 36 19 67 36 W 1003,2 35 37 0,0
10.02.2019 11:00:00 6,8 3,2 5,7 8,2 30 16 51 28 W 1001,4 15 12 0,2
10.02.2019 10:00:00 6,0 4,2 5,0 8,3 29 16 62 33 W 1000,3 6 13 1,0
10.02.2019 09:00:00 6,9 4,4 5,8 8,4 27 15 53 28 W 998,9 11 0 0,0
10.02.2019 08:00:00 7,0 4,8 6,1 8,4 22 12 35 19 WSW 997,6 60 0 0,2

tt = Température de l'air
td = dewpoint
tt 5cm = Température de l'air 5cm
tt -20cm = Température de l'air -20cm
ff = Vitesse du vent
fx = gusts
dd = Direction du vent
ppp = reduced air pressure
vv = visibility
sd = Ensoleillement
rr = Quantités de précipitations

stations d'obs. à proximité